Terminal Aerodrome Forecast
Issued by NWS Green Bay, WI

Home | Current Version | Previous Version | Graphics & Text | Print | Product List | Glossary On
Versions: 1 2 3 4 5 6 7 8 9 10 11 12 13 14 15 16 17 18 19 20 21 22 23 24 25 26 27 28 29 30 31 32 33 34 35 36 37 38 39 40 41 42 43 44 45 46 47 48 49 50
728
FTUS43 KGRB 190212 AAA
TAFGRB
TAF AMD
KGRB 190212Z 1902/1924 23007KT P6SM SKC WS015/27035KT
     FM190430 23006KT 5SM BR OVC009
     FM191200 22004KT 2SM BR OVC004
     FM191600 20005KT 5SM BR BKN012=

USA.gov is the U.S. government's official web portal to all federal, state and local government web resources and services.